Theta_e
305 307 306 306 306 307 305 305 306 307 310 314 315 316 317 318 320 322 324 320 326 335 335 336 334 335 337 337 337 336 335 334 332 331 330 329 327 326 326 325 324 323 321
306 307 306 307 306 306 305 305 306 307 312 313 314 315 316 319 321 322 324 325 324 331 335 334 333 333 337 336 337 335 334 333 332 330 328 328 326 325 324 323 323 322 322
307 307 307 306 306 307 306 307 308 308 313 314 314 315 315 316 319 321 324 325 325 324 330 334 334 332 334 335 335 334 334 333 331 329 327 325 324 322 323 323 321 319 319
308 307 307 307 307 307 306 306 306 308 312 313 312 313 314 316 317 318 322 326 326 325 326 330 333 335 335 335 335 335 333 331 329 326 324 324 324 323 322 321 320 319 318
308 307 307 307 307 306 306 307 306 305 311 312 312 312 312 313 314 317 319 324 325 324 325 323 323 327 333 335 335 334 332 330 327 325 324 323 323 322 321 320 319 317 316
308 307 307 307 307 306 305 306 306 309 312 313 312 311 312 312 313 313 316 323 324 325 325 325 325 324 327 332 332 332 330 328 326 324 323 322 320 320 320 319 318 318 317
307 307 307 307 307 306 306 307 310 312 311 313 313 312 312 312 311 311 315 319 321 323 323 323 324 326 327 329 330 329 329 327 326 325 323 322 320 319 320 319 318 317 316
307 307 307 307 307 307 306 307 310 310 310 310 308 307 307 310 310 310 312 315 317 318 317 318 319 319 320 324 324 327 327 326 324 323 322 321 321 320 319 317 316 315 316
307 307 307 308 307 309 307 306 307 308 308 308 306 305 304 304 305 309 309 311 313 314 314 315 315 316 317 318 321 321 323 324 322 322 321 321 320 320 319 317 316 315 314
306 306 307 308 308 309 308 307 308 306 308 304 305 305 306 309 305 304 307 308 309 309 310 310 311 311 312 313 310 309 314 318 319 320 321 320 320 319 317 317 316 315 314
306 306 307 307 308 309 308 308 307 307 306 304 303 303 306 308 307 307 303 305 307 306 307 307 306 306 308 310 312 309 312 315 315 316 319 320 319 317 316 316 317 315 314
305 305 306 307 309 309 309 309 308 307 307 306 305 304 305 305 306 303 303 301 301 303 306 306 306 305 307 309 305 304 310 313 315 315 315 317 318 318 317 317 316 314 312
304 305 306 306 307 309 309 309 308 307 307 305 305 304 305 305 308 308 306 302 300 300 304 306 305 305 305 308 305 303 305 310 313 314 314 315 316 317 317 315 313 311 309
306 306 306 306 306 309 309 308 308 307 307 306 305 305 304 305 309 309 306 304 300 299 301 301 305 304 305 305 300 300 306 306 311 313 313 314 314 314 314 313 310 308 307
306 305 306 306 307 308 309 308 308 306 307 305 304 304 304 304 307 305 308 308 303 299 298 300 302 304 303 304 300 309 309 300 308 310 311 311 312 312 312 311 308 307 306
305 305 305 306 307 308 308 308 306 306 306 304 304 304 304 304 304 309 309 304 304 304 296 300 301 302 302 302 299 305 303 300 302 305 307 308 309 310 309 309 308 306 305
305 306 306 306 306 308 308 308 306 306 306 304 304 304 304 305 305 308 308 306 302 303 297 297 301 302 300 301 301 302 302 305 303 301 304 306 306 306 305 306 306 305 304
306 306 306 306 307 308 308 308 306 307 306 304 304 304 304 307 305 308 307 305 302 303 302 299 299 298 298 298 298 297 296 297 299 299 302 303 303 303 303 303 302 302 301
305 306 306 306 307 307 308 307 308 307 307 306 305 305 305 306 305 306 305 303 302 303 302 301 297 298 297 297 295 293 292 292 293 295 299 299 300 301 301 301 300 299 298
305 305 306 306 307 307 308 307 307 307 306 305 306 306 306 306 306 306 303 302 301 300 301 298 297 295 295 294 295 294 290 285 288 295 295 294 296 296 299 300 298 296 297
304 305 305 305 306 307 308 307 307 306 306 304 304 305 306 301 298 302 302 300 301 300 298 297 295 294 292 288 291 287 288 286 289 286 288 294 294 293 295 296 294 295 297
304 304 304 304 305 307 300 300 305 306 306 305 304 302 300 293 297 296 297 298 300 299 297 296 296 296 293 293 289 288 286 288 290 287 288 288 289 290 291 293 294 295 297
303 303 304 304 304 306 298 299 298 306 306 306 306 303 299 299 296 298 295 296 294 297 299 299 297 298 295 294 291 287 289 289 289 287 288 288 286 287 289 290 293 294 295
302 303 303 304 304 305 298 298 297 305 306 306 305 303 302 297 299 298 297 295 295 296 295 296 298 298 296 296 295 292 294 289 286 286 287 289 286 287 286 287 292 294 295
302 303 303 304 303 302 297 297 301 304 302 302 303 303 302 300 294 295 297 295 293 292 294 295 295 296 295 295 294 292 288 288 287 287 285 287 286 286 285 286 287 293 293
302 302 301 303 299 302 295 297 303 304 302 300 298 297 292 300 293 295 298 296 292 292 291 290 291 292 292 292 292 294 292 289 286 288 287 288 285 285 285 285 285 286 288
Wind_Speed
4 4 3 3 3 4 4 4 4 4 6 10 7 6 6 7 8 3 3 12 10 11 15 16 14 14 18 20 24 25 27 27 25 22 24 25 23 22 20 21 19 17 14
4 4 4 3 3 4 4 4 4 4 5 5 7 8 9 7 8 8 6 7 15 11 13 14 12 10 16 19 21 25 25 26 27 26 25 23 22 21 19 18 18 18 17
5 5 4 4 3 3 6 5 4 3 5 5 7 8 8 9 9 10 8 7 7 11 9 13 13 7 14 18 20 24 26 29 29 26 24 22 20 19 20 20 18 15 15
6 5 4 4 4 4 4 4 3 3 5 6 5 6 6 8 10 11 9 8 7 7 10 13 13 20 17 25 27 28 30 29 28 25 23 22 21 21 19 17 18 17 15
6 5 4 4 5 4 4 4 3 2 4 6 6 7 7 8 9 8 12 10 9 8 8 13 15 18 28 31 31 30 29 28 25 23 22 22 20 19 18 18 16 14 14
6 5 4 5 5 4 4 3 3 3 3 6 7 8 7 7 8 8 8 8 10 11 11 11 8 10 23 26 28 29 28 26 24 22 22 21 18 18 17 16 15 13 13
6 6 4 5 5 5 5 5 4 6 3 2 5 7 7 9 11 8 8 7 9 11 12 10 8 7 10 23 24 27 26 25 23 22 21 19 18 17 16 16 14 13 11
7 6 6 5 6 5 5 4 4 2 2 3 3 2 3 4 7 8 8 7 10 9 10 11 10 10 8 7 14 22 23 22 21 20 19 18 17 18 17 15 13 12 12
7 7 7 6 6 5 5 4 4 4 2 2 5 3 3 2 2 5 9 8 10 9 8 9 10 9 9 7 8 13 17 20 20 20 19 19 17 16 15 14 14 12 10
8 7 8 7 8 5 5 4 3 3 2 1 2 3 3 4 3 4 5 7 10 10 9 7 8 8 7 6 9 11 14 14 16 16 16 16 16 15 14 14 12 13 13
7 8 8 7 7 6 5 6 4 4 3 2 2 1 4 4 3 3 5 5 8 7 7 8 6 6 7 6 5 8 13 13 11 11 12 13 15 13 12 11 12 12 12
6 7 8 8 8 6 7 6 5 6 5 3 2 3 3 3 4 3 6 5 6 4 6 7 7 6 6 5 5 9 11 11 11 11 11 11 11 11 12 13 13 13 12
7 9 9 8 7 8 6 5 5 5 6 4 5 3 1 3 3 4 7 5 4 3 4 6 5 5 4 4 4 5 9 10 11 11 12 11 12 11 13 11 12 11 11
10 10 9 8 7 8 7 6 4 4 6 5 7 4 3 4 6 7 5 12 5 3 3 2 3 4 4 4 5 6 5 11 11 11 11 11 12 13 11 10 10 9 9
8 11 10 10 8 7 7 7 5 5 6 5 5 6 4 3 4 4 5 6 3 6 2 1 2 4 4 4 6 6 6 8 10 10 10 10 11 11 8 8 8 6 6
11 12 11 10 9 8 7 7 5 5 7 4 4 7 5 4 5 5 7 3 2 5 4 2 2 3 3 5 6 7 6 8 10 10 10 10 8 8 6 6 6 5 5
13 13 13 11 11 9 8 7 6 7 8 6 6 8 6 7 5 6 5 3 4 4 6 3 2 2 4 6 6 7 5 5 4 8 8 7 6 5 6 6 5 5 6
14 15 14 13 11 10 9 9 8 8 10 9 9 9 9 7 7 7 5 5 4 4 6 11 2 2 4 4 4 6 4 5 4 7 6 6 6 5 5 5 6 5 5
15 14 14 14 13 12 11 9 9 9 9 9 10 11 11 10 9 7 6 6 5 6 7 7 4 2 2 1 4 4 3 3 2 5 6 7 7 6 5 5 4 3 4
16 15 15 14 13 12 11 10 9 9 8 8 9 10 12 12 12 11 7 8 7 8 8 6 4 3 2 2 3 2 1 2 1 2 1 1 3 4 5 5 6 7 7
15 15 15 13 13 12 10 12 10 10 10 8 7 8 10 9 11 10 9 8 10 7 7 7 4 3 3 2 3 1 1 1 2 0 2 1 2 2 2 3 4 6 7
15 15 15 16 15 10 14 15 12 10 10 11 10 7 7 9 11 13 12 12 12 14 9 6 4 6 4 4 3 3 3 2 2 1 1 2 2 2 2 3 7 8 7
15 16 15 15 15 13 18 17 15 10 10 10 10 10 8 5 9 8 11 12 7 6 10 8 10 9 8 8 7 4 4 3 3 1 2 2 1 1 1 2 7 8 7
16 15 15 15 14 11 19 19 17 10 9 9 10 11 11 10 9 11 10 9 6 6 6 5 9 9 5 9 11 6 6 4 2 0 1 1 1 1 2 2 7 8 8
13 13 14 15 15 11 19 19 16 11 8 8 8 10 11 11 14 16 11 10 7 4 3 7 7 9 10 14 10 6 3 4 1 2 1 2 0 1 1 2 3 7 9
14 11 13 14 14 13 19 21 16 9 10 7 6 6 12 13 18 17 12 12 10 7 6 5 4 5 6 9 11 2 6 4 3 1 3 3 1 2 2 1 2 3 2
Wind_Direction
130 127 114 106 94 92 86 65 48 42 48 55 36 36 40 30 34 33 19 12 20 101 95 99 93 97 118 123 125 127 125 124 123 123 116 111 106 105 102 99 100 97 96
137 130 132 114 99 102 91 78 60 57 60 35 37 28 19 30 29 13 28 23 32 82 100 96 85 98 119 125 134 130 128 126 121 116 110 105 105 103 105 103 101 98 97
150 137 142 122 130 112 96 79 56 43 64 45 39 42 33 20 25 27 30 41 31 35 66 83 75 94 169 139 141 129 123 115 108 108 106 105 107 109 108 107 101 94 89
149 137 142 132 139 110 97 88 72 60 73 59 48 40 41 37 30 23 29 46 46 39 32 82 65 74 121 124 124 119 113 110 108 109 111 108 108 107 106 103 102 97 93
155 140 148 141 131 114 99 109 73 70 81 73 62 51 42 35 28 28 27 33 48 46 58 50 58 86 93 111 114 114 113 110 114 112 107 105 106 103 104 106 102 101 97
158 144 150 142 132 118 115 114 108 65 91 93 81 64 49 46 40 30 23 35 55 52 59 58 51 82 101 110 115 117 113 113 111 109 103 102 102 105 109 107 104 103 96
160 153 153 141 135 134 153 143 116 114 99 87 87 74 64 52 43 31 25 38 53 66 59 56 56 59 89 104 107 111 112 112 112 111 112 111 108 113 109 103 92 87 86
163 160 158 152 145 141 145 137 117 122 80 19 112 106 97 58 41 29 36 45 52 62 58 56 59 60 59 89 106 110 111 111 109 110 111 110 113 106 103 96 91 81 73
168 163 165 157 155 159 153 164 134 113 112 40 49 115 112 110 122 11 34 48 56 54 48 50 54 57 63 68 84 103 109 109 111 110 109 113 109 107 101 95 80 73 71
175 168 168 169 166 168 157 171 157 124 108 115 50 21 74 110 114 108 32 42 52 45 36 40 44 43 50 61 69 84 93 97 106 113 112 110 109 105 97 92 93 78 64
177 175 175 172 177 172 173 162 168 151 135 134 119 105 67 56 37 121 113 93 61 32 38 43 31 36 37 50 64 82 92 95 101 99 104 104 101 94 92 99 92 74 61
183 182 178 176 183 180 177 174 175 162 160 151 180 162 147 144 152 115 114 81 90 34 39 44 31 36 41 52 43 87 98 101 93 92 87 104 92 89 85 86 72 64 56
189 192 180 181 181 184 177 169 166 169 163 168 179 171 162 109 105 103 122 102 101 47 49 37 18 29 35 33 37 72 92 90 90 92 89 83 88 81 82 75 72 65 58
184 178 180 179 174 176 173 169 163 172 161 170 175 152 137 122 130 148 145 138 115 80 62 23 23 18 26 30 36 66 72 88 91 98 97 95 93 89 85 84 76 67 63
173 174 175 176 176 175 173 168 169 174 160 161 166 142 135 130 123 129 134 150 123 140 122 59 90 22 35 38 23 64 66 65 92 96 93 97 92 91 85 81 80 75 66
166 171 174 176 174 176 173 167 160 162 150 150 145 141 141 130 126 140 151 119 50 107 124 118 77 80 32 65 40 68 67 72 72 88 93 94 101 94 82 87 77 59 53
169 174 176 174 175 175 172 168 162 160 151 148 145 150 150 144 143 138 129 118 106 90 107 79 88 80 45 74 62 59 41 65 67 78 94 104 101 90 75 65 66 42 25
174 173 173 175 178 177 173 173 165 170 157 162 160 149 153 153 143 147 140 126 119 107 122 133 109 89 69 51 69 69 36 38 50 48 81 89 79 70 66 51 34 31 17
174 172 173 176 178 179 175 176 171 172 165 165 164 161 160 160 155 153 135 122 114 110 127 140 124 107 107 96 70 61 50 29 36 23 43 45 40 31 24 38 12 359 342
170 173 177 176 177 175 175 174 166 167 160 163 164 164 164 168 165 156 137 134 127 120 129 130 114 110 109 52 81 107 28 356 299 5 359 17 9 4 348 346 352 337 331
173 173 170 173 172 175 176 173 170 166 163 154 160 159 165 161 156 151 144 147 138 134 141 144 142 125 139 132 155 141 136 331 290 187 327 288 323 327 333 340 308 298 303
171 169 174 173 173 180 170 166 165 167 165 162 166 154 143 145 151 149 137 150 159 150 156 151 160 177 166 153 126 155 151 155 243 247 99 299 10 334 349 347 341 337 332
167 173 175 175 179 180 166 166 162 167 167 169 168 158 149 150 140 134 128 126 121 124 152 162 169 183 181 174 137 171 186 162 199 244 116 289 9 284 337 360 8 15 18
170 172 174 177 175 178 165 165 164 162 169 170 166 163 160 155 151 142 142 136 146 146 148 149 177 184 183 161 179 172 161 128 66 355 124 206 7 279 338 341 27 40 51
171 172 173 172 176 172 167 165 164 166 165 164 158 162 161 161 156 148 146 143 140 159 184 174 184 172 167 173 173 129 145 110 237 259 206 139 318 323 9 331 13 46 44
171 167 170 177 174 168 169 166 169 165 167 158 147 152 163 162 159 158 151 156 161 180 165 135 123 94 137 168 169 186 157 138 133 354 205 155 151 110 355 334 5 34 36